Tiempo atmosférico en la estación meteorológica de Tejeda, Cruz de Tejeda, Las Palmas (1514 m.)



Fecha
DESCASC
Temp. máxima en grados centígrados (hora)
DESCASC
Temp. mínima en grados centígrados (hora)
DESCASC
Temp. media en grados centígrados
DESCASC
Racha de viento máxima en m/sg (hora)
DESCASC
Velocidad máxima media en intervalos de 10 minutos(hora)
DESCASC
Precipitaciones diarias en mm
DESCASC
Precipitaciones de 00:00 a 06:00 en mm
DESCASC
Precipitaciones de 06:00 a 12:00 en mm
DESCASC
Precipitaciones de 12:00 a 18:00 en mm
DESCASC
Precipitaciones de 18:00 a 24:00 en mm
DESCASC
07-08-2020 23.2 (13:10) 17.2 (00:10) 20.2 10.28 (23:20) 8.06 (23:30) -- -- -- -- --
06-08-2020 25.4 (17:20) 16.9 (06:50) 21.1 8.89 (00:30) 4.44 (03:50) -- -- -- -- --
05-08-2020 23.3 (16:00) 16.7 (06:50) 20 12.78 (07:50) 8.89 (07:40) -- -- -- -- --
04-08-2020 23.6 (12:40) 18.3 (06:10) 20.9 9.44 (23:40) 5.83 (23:00) -- -- -- -- --
03-08-2020 26.9 (13:30) 19.1 (23:40) 23 14.72 (01:50) 9.17 (05:40) -- -- -- -- --
02-08-2020 26.5 (12:30) 20.5 (00:00) 23.5 12.78 (22:20) 6.67 (01:40) -- -- -- -- --
01-08-2020 29.9 (18:00) 20.6 (00:00) 25.3 10.83 (23:10) 6.67 (23:30) -- -- -- -- --
31-07-2020 26.1 (12:10) 21.1 (06:50) 23.6 9.17 (15:40) 6.39 (15:50) -- -- -- -- --
30-07-2020 29.3 (14:30) 19.4 (00:00) 24.3 5.28 (16:30) 3.61 (00:50) -- -- -- -- --
29-07-2020 26.1 (18:30) 19.6 (00:00) 22.9 8.33 (06:50) 4.72 (07:20) -- -- -- -- --
28-07-2020 27.9 (16:00) 20.7 (00:00) 24.3 7.5 (23:40) 4.72 (07:10) -- -- -- -- --
27-07-2020 31.7 (17:10) 18.4 (00:00) 25.1 8.89 (00:10) 6.67 (00:10) -- -- -- -- --
26-07-2020 22.8 (14:30) 16.1 (00:00) 19.4 12.78 (06:50) 9.17 (03:30) -- -- -- -- --
25-07-2020 23.8 (13:30) 17 (00:00) 20.4 19.17 (00:50) 9.44 (00:10) -- -- -- -- --
24-07-2020 25.9 (12:50) 20.1 (00:00) 23 13.33 (23:59) 8.89 (23:59) -- -- -- -- --
23-07-2020 25.3 (15:20) 18.6 (00:00) 21.9 6.11 (12:30) 5.28 (23:30) -- -- -- -- --
22-07-2020 -- (--) -- (--) -- -- (--) -- (--) -- -- -- -- --
21-07-2020 28.1 (16:30) 17.8 (00:00) 22.9 10.28 (02:50) 5.83 (01:30) -- -- -- -- --
20-07-2020 30 (18:10) 19.9 (00:00) 24.9 13.89 (01:10) 8.61 (02:20) -- -- -- -- --
19-07-2020 28.1 (14:40) 21.5 (00:00) 24.8 13.61 (12:20) 8.61 (22:20) -- -- -- -- --
18-07-2020 30 (13:00) 22.7 (00:00) 26.4 11.67 (21:40) 6.94 (21:00) -- -- -- -- --
17-07-2020 31.3 (17:40) 22.2 (00:00) 26.8 6.39 (23:30) 4.17 (23:40) -- -- -- -- --
16-07-2020 30.4 (15:50) 19 (00:00) 24.7 5.83 (02:20) 4.17 (02:20) -- -- -- -- --
15-07-2020 23.2 (13:50) 16.5 (00:00) 19.9 16.94 (00:30) 11.39 (02:30) -- -- -- -- --
14-07-2020 21.3 (13:30) 16.5 (00:00) 18.9 20 (19:20) 10.83 (23:59) -- -- -- -- --
13-07-2020 31.2 (14:30) 19.9 (00:00) 25.6 10.56 (23:40) 5.28 (23:30) -- -- -- -- --

Gráficas

Temp. máximas Temp. mínimas Temp. medias Precipitaciones Rachas de viento máximas Velocidades máximas media en intervalos de 10 minutos

Datos horarios

Fecha y hora oficial Temperatura (ºC) Velocidad del viento (km/h) Dirección del viento Racha (km/h) Dirección de racha Precipitación (mm) Presión (hPa) Tendencia (hPa) Humedad (%)
2020-08-11 23:00:00 19.1 17 Norte 24 Norte -- -- -- 8
2020-08-11 22:00:00 17.7 10 Nordeste 23 Norte -- -- -- 14
2020-08-11 21:00:00 16.1 10 Nordeste 24 Norte -- -- -- 31
2020-08-11 20:00:00 13.6 4 Nordeste 14 Nordeste -- -- -- 86
2020-08-11 19:00:00 17.6 6 Nordeste 14 Nordeste -- -- -- 66
2020-08-11 18:00:00 18.9 3 Nordeste 18 Nordeste -- -- -- 60
2020-08-11 17:00:00 18.6 4 Nordeste 14 Norte -- -- -- 65
2020-08-11 16:00:00 20 5 Nordeste 15 Nordeste -- -- -- 57
2020-08-11 15:00:00 21 5 Este 16 Este -- -- -- 54
2020-08-11 14:00:00 20.3 4 Nordeste 17 Nordeste -- -- -- 59
2020-08-11 13:00:00 19.8 5 Nordeste 13 Este -- -- -- 61
2020-08-11 12:00:00 19.8 6 Este 14 Este -- -- -- 60
2020-08-11 11:00:00 17.5 4 Nordeste 19 Norte -- -- -- 70
2020-08-11 10:00:00 20.6 8 Nordeste 25 Norte -- -- -- 31
2020-08-11 09:00:00 18.6 5 Nordeste 24 Norte -- -- -- 31
2020-08-11 08:00:00 17.7 12 Norte 26 Norte -- -- -- 30
2020-08-11 07:00:00 18.1 7 Norte 20 Norte -- -- -- 24
2020-08-11 06:00:00 18.5 5 Norte 27 Nordeste -- -- -- 24
2020-08-11 05:00:00 19.2 14 Norte 24 Norte -- -- -- 28
2020-08-11 04:00:00 17 6 Nordeste 23 Nordeste -- -- -- 26
2020-08-11 03:00:00 19 12 Norte 25 Nordeste -- -- -- 29
2020-08-11 02:00:00 19 15 Norte 26 Norte -- -- -- 27
2020-08-11 01:00:00 18.3 14 Norte 26 Norte -- -- -- 28
2020-08-11 00:00:00 19 18 Norte 26 Norte -- -- -- 39
2020-08-10 23:00:00 18.1 13 Nordeste 30 Norte -- -- -- 37
2020-08-10 22:00:00 19.1 18 Norte 30 Norte -- -- -- 40
2020-08-10 21:00:00 19.6 24 Norte 30 Norte -- -- -- 41
2020-08-10 20:00:00 20.7 17 Norte 21 Norte -- -- -- 38
2020-08-10 19:00:00 21.1 3 Nordeste 17 Este -- -- -- 44
2020-08-10 18:00:00 21.6 4 Nordeste 11 Nordeste -- -- -- 52
2020-08-10 17:00:00 22.4 4 Nordeste 15 Nordeste -- -- -- 44
2020-08-10 16:00:00 21.7 4 Nordeste 18 Nordeste -- -- -- 53
2020-08-10 15:00:00 21.8 6 Nordeste 19 Este -- -- -- 51
2020-08-10 14:00:00 22.4 7 Nordeste 21 Nordeste -- -- -- 45
2020-08-10 13:00:00 22.5 6 Nordeste 24 Nordeste -- -- -- 39
2020-08-10 12:00:00 21.6 5 Nordeste 21 Nordeste -- -- -- 45
2020-08-10 11:00:00 20.4 6 Nordeste 29 Nordeste -- -- -- 49
2020-08-10 10:00:00 19.6 5 Nordeste 27 Nordeste -- -- -- 43
2020-08-10 09:00:00 19 8 Nordeste 28 Nordeste -- -- -- 35
2020-08-10 08:00:00 17.7 11 Nordeste 23 Nordeste -- -- -- 35
2020-08-10 07:00:00 17.3 17 Nordeste 27 Nordeste -- -- -- 38
2020-08-10 06:00:00 17.5 14 Nordeste 26 Nordeste -- -- -- 36
2020-08-10 05:00:00 17.3 13 Nordeste 30 Norte -- -- -- 33
2020-08-10 04:00:00 17.8 9 Nordeste 28 Nordeste -- -- -- 26
2020-08-10 03:00:00 18 8 Nordeste 34 Nordeste -- -- -- 20
2020-08-10 02:00:00 17.4 10 Nordeste 32 Norte -- -- -- 21
2020-08-10 01:00:00 17.6 9 Nordeste 33 Norte -- -- -- 16
2020-08-10 00:00:00 18.6 20 Nordeste 35 Norte -- -- -- 19
2020-08-09 23:00:00 18.6 9 Nordeste 29 Norte -- -- -- 21
2020-08-09 22:00:00 20.3 17 Norte 30 Norte -- -- -- 16
2020-08-09 21:00:00 20.9 19 Norte 28 Norte -- -- -- 12
2020-08-09 20:00:00 21.5 14 Nordeste 23 Norte -- -- -- 13
2020-08-09 19:00:00 22.7 5 Nordeste 18 Nordeste -- -- -- 22
2020-08-09 18:00:00 23.5 4 Nordeste 20 Nordeste -- -- -- 21
2020-08-09 17:00:00 23.2 8 Nordeste 26 Este -- -- -- 20
2020-08-09 16:00:00 24.3 10 Nordeste 28 Nordeste -- -- -- 19
2020-08-09 15:00:00 24.3 11 Este 33 Este -- -- -- 19
2020-08-09 14:00:00 23.2 9 Nordeste 27 Este -- -- -- 21
2020-08-09 13:00:00 23.2 7 Nordeste 31 Norte -- -- -- 32
2020-08-09 12:00:00 22.9 13 Nordeste 30 Este -- -- -- 23
2020-08-09 11:00:00 22.6 9 Nordeste 35 Nordeste -- -- -- 22
2020-08-09 10:00:00 21.7 9 Nordeste 31 Norte -- -- -- 23
2020-08-09 09:00:00 20.9 10 Nordeste 33 Norte -- -- -- 23
2020-08-09 08:00:00 19.1 12 Nordeste 33 Norte -- -- -- 26
2020-08-09 07:00:00 19.6 18 Norte 32 Norte -- -- -- 20
2020-08-09 06:00:00 19.5 19 Norte 31 Norte -- -- -- 22
2020-08-09 05:00:00 18.2 9 Nordeste 29 Nordeste -- -- -- 27
2020-08-09 04:00:00 18.5 16 Nordeste 30 Norte -- -- -- 28
2020-08-09 03:00:00 18.6 13 Nordeste 32 Nordeste -- -- -- 27
2020-08-09 02:00:00 18.4 14 Nordeste 35 Nordeste -- -- -- 30
2020-08-09 01:00:00 18.5 10 Nordeste 36 Norte -- -- -- 25
2020-08-09 00:00:00 18.7 24 Nordeste 38 Norte -- -- -- 23
2020-08-08 23:00:00 18.8 21 Nordeste 38 Nordeste -- -- -- 21
2020-08-08 22:00:00 17.4 11 Nordeste 34 Nordeste -- -- -- 35
2020-08-08 21:00:00 18.1 12 Nordeste 35 Nordeste -- -- -- 32
2020-08-08 20:00:00 19.1 10 Nordeste 30 Norte -- -- -- 34
2020-08-08 19:00:00 20.6 9 Nordeste 32 Este -- -- -- 33
2020-08-08 18:00:00 21.1 16 Nordeste 36 Este -- -- -- 35
2020-08-08 17:00:00 22 8 Nordeste 36 Este -- -- -- 35
2020-08-08 16:00:00 22.3 9 Nordeste 35 Este -- -- -- 34
2020-08-08 15:00:00 23.6 14 Este 36 Este -- -- -- 30
2020-08-08 14:00:00 22.9 13 Este 33 Este -- -- -- 34
2020-08-08 13:00:00 22 11 Este 35 Sudeste -- -- -- 33
2020-08-08 12:00:00 21.8 13 Este 37 Este -- -- -- 33
2020-08-08 11:00:00 20.9 12 Nordeste 36 Este -- -- -- 30
2020-08-08 10:00:00 19.6 12 Nordeste 37 Este -- -- -- 35
2020-08-08 09:00:00 19 6 Nordeste 33 Norte -- -- -- 34
2020-08-08 08:00:00 17.1 4 Nordeste 32 Norte -- -- -- 38
2020-08-08 07:00:00 17.2 22 Nordeste 34 Norte -- -- -- 37
2020-08-08 06:00:00 16.9 26 Norte 37 Nordeste -- -- -- 37
2020-08-08 05:00:00 16.7 21 Nordeste 36 Nordeste -- -- -- 38
2020-08-08 04:00:00 16.5 22 Nordeste 38 Norte -- -- -- 40
2020-08-08 03:00:00 17.7 27 Nordeste 38 Norte -- -- -- 33
2020-08-08 02:00:00 17.7 28 Norte 40 Norte -- -- -- 33
2020-08-08 01:00:00 17.6 29 Norte 38 Norte -- -- -- 36
2020-08-08 00:00:00 18.1 27 Norte 37 Norte -- -- -- 35
2020-08-07 23:00:00 18 27 Norte 35 Norte -- -- -- 35
2020-08-07 22:00:00 18.5 24 Nordeste 32 Nordeste -- -- -- 32
2020-08-07 21:00:00 18 9 Nordeste 19 Nordeste -- -- -- 37
2020-08-07 20:00:00 18.5 9 Nordeste 13 Norte -- -- -- 44
2020-08-07 19:00:00 20.1 4 Nordeste 11 Este -- -- -- 48
2020-08-07 18:00:00 20.8 4 Nordeste 12 Nordeste -- -- -- 58
2020-08-07 17:00:00 20.8 5 Este 17 Este -- -- -- 55
2020-08-07 16:00:00 21.4 6 Nordeste 20 Este -- -- -- 53
2020-08-07 15:00:00 23 8 Este 19 Este -- -- -- 46
2020-08-07 14:00:00 20.7 5 Nordeste 15 Sudeste -- -- -- 59
2020-08-07 13:00:00 22.6 7 Este 15 Este -- -- -- 51
2020-08-07 12:00:00 22.5 4 Nordeste 14 Este -- -- -- 40
2020-08-07 11:00:00 21.8 6 Este 16 Nordeste -- -- -- 34
2020-08-07 10:00:00 21.4 5 Nordeste 16 Este -- -- -- 31
2020-08-07 09:00:00 21 3 Nordeste 16 Norte -- -- -- 28
2020-08-07 08:00:00 19.6 11 Norte 14 Norte -- -- -- 28
2020-08-07 07:00:00 18.4 9 Norte 15 Norte -- -- -- 31
2020-08-07 06:00:00 17.7 12 Nordeste 21 Norte -- -- -- 32
2020-08-07 05:00:00 17.8 13 Norte 19 Norte -- -- -- 34
2020-08-07 04:00:00 17.8 13 Norte 24 Norte -- -- -- 33
2020-08-07 03:00:00 17.9 9 Noroeste 17 Norte -- -- -- 35
2020-08-07 02:00:00 17.7 3 Este 7 Este -- -- -- 29
2020-08-07 01:00:00 17.7 3 Este 6 Sudeste -- -- -- 32
2020-08-07 00:00:00 17.3 2 Este 7 Este -- -- -- 34
2020-08-06 23:00:00 18.2 0 Calma 9 Nordeste -- -- -- 34
2020-08-06 22:00:00 19.3 3 Noroeste 9 Noroeste -- -- -- 29
2020-08-06 21:00:00 20.1 5 Noroeste 10 Noroeste -- -- -- 28
2020-08-06 20:00:00 22.4 2 Sudeste 10 Sur -- -- -- 58
2020-08-06 19:00:00 22 5 Sudoeste 13 Sudoeste -- -- -- 59
2020-08-06 18:00:00 22.4 7 Sudoeste 14 Sudoeste -- -- -- 57
2020-08-06 17:00:00 24.5 4 Este 16 Sudoeste -- -- -- 51
2020-08-06 16:00:00 22.7 6 Sudoeste 15 Sudoeste -- -- -- 56
2020-08-06 15:00:00 24 3 Este 13 Este -- -- -- 50
2020-08-06 14:00:00 23.3 4 Este 15 Nordeste -- -- -- 47
2020-08-06 13:00:00 23.8 6 Este 19 Este -- -- -- 36
2020-08-06 12:00:00 24.1 6 Este 19 Este -- -- -- 35
2020-08-06 11:00:00 22.3 6 Este 23 Este -- -- -- 29
2020-08-06 10:00:00 21.3 9 Este 26 Este -- -- -- 30
2020-08-06 09:00:00 19.6 8 Nordeste 24 Este -- -- -- 33
2020-08-06 08:00:00 18.3 6 Nordeste 19 Este -- -- -- 34
2020-08-06 07:00:00 16.9 5 Nordeste 21 Este -- -- -- 36
2020-08-06 06:00:00 17.3 4 Nordeste 16 Norte -- -- -- 35
2020-08-06 05:00:00 17.2 5 Nordeste 21 Norte -- -- -- 36
2020-08-06 04:00:00 18 15 Norte 25 Nordeste -- -- -- 35
2020-08-06 03:00:00 17.9 11 Este 26 Este -- -- -- 35
2020-08-06 02:00:00 18.1 7 Nordeste 26 Este -- -- -- 34
2020-08-06 01:00:00 18.3 9 Este 32 Norte -- -- -- 34
2020-08-06 00:00:00 18.9 11 Este 31 Nordeste -- -- -- 33
2020-08-05 23:00:00 19.1 10 Nordeste 25 Nordeste -- -- -- 31
2020-08-05 22:00:00 19 6 Nordeste 31 Este -- -- -- 31
2020-08-05 21:00:00 18.8 7 Este 18 Este -- -- -- 31
2020-08-05 20:00:00 20.5 5 Nordeste 18 Este -- -- -- 30
2020-08-05 19:00:00 22.3 6 Este 24 Norte -- -- -- 28
2020-08-05 18:00:00 21.8 7 Nordeste 30 Nordeste -- -- -- 36
2020-08-05 17:00:00 22.1 9 Nordeste 33 Nordeste -- -- -- 35
2020-08-05 16:00:00 23.3 12 Este 31 Este -- -- -- 33
2020-08-05 15:00:00 22.4 11 Nordeste 40 Este -- -- -- 36
2020-08-05 14:00:00 21.9 9 Nordeste 37 Este -- -- -- 35
2020-08-05 13:00:00 21.8 14 Nordeste 40 Este -- -- -- 34
2020-08-05 12:00:00 21.5 12 Nordeste 40 Este -- -- -- 32
2020-08-05 11:00:00 20.1 10 Nordeste 46 Este -- -- -- 34
2020-08-05 10:00:00 19.7 10 Nordeste 39 Nordeste -- -- -- 36
2020-08-05 09:00:00 19.5 22 Nordeste 42 Nordeste -- -- -- 36
2020-08-05 08:00:00 18.2 30 Nordeste 46 Nordeste -- -- -- 41
2020-08-05 07:00:00 17.4 20 Nordeste 40 Nordeste -- -- -- 43
2020-08-05 06:00:00 17.2 8 Nordeste 41 Nordeste -- -- -- 43
2020-08-05 05:00:00 17.8 19 Nordeste 43 Nordeste -- -- -- 40
2020-08-05 04:00:00 17.9 20 Nordeste 41 Nordeste -- -- -- 37
2020-08-05 03:00:00 18.3 20 Nordeste 39 Nordeste -- -- -- 37
2020-08-05 02:00:00 18.2 12 Nordeste 40 Norte -- -- -- 38
2020-08-05 01:00:00 19.1 12 Nordeste 35 Nordeste -- -- -- 36
2020-08-05 00:00:00 19.2 9 Nordeste 34 Nordeste -- -- -- 25
2020-08-04 23:00:00 18.8 21 Norte 32 Norte -- -- -- 23
2020-08-04 22:00:00 19.1 10 Nordeste 30 Nordeste -- -- -- 25
2020-08-04 21:00:00 19.9 15 Nordeste 27 Nordeste -- -- -- 29
2020-08-04 20:00:00 20.8 9 Nordeste 26 Nordeste -- -- -- 30
2020-08-04 19:00:00 22.3 5 Nordeste 20 Este -- -- -- 30
2020-08-04 18:00:00 22.8 5 Nordeste 19 Nordeste -- -- -- 35
2020-08-04 17:00:00 23 5 Nordeste 19 Nordeste -- -- -- 39
2020-08-04 16:00:00 22.8 6 Nordeste 19 Este -- -- -- 39
2020-08-04 15:00:00 22.2 6 Nordeste 22 Nordeste -- -- -- 37
2020-08-04 14:00:00 22.2 5 Nordeste 21 Norte -- -- -- 38
2020-08-04 13:00:00 22.9 6 Nordeste 22 Nordeste -- -- -- 36
2020-08-04 12:00:00 23.2 4 Nordeste 25 Nordeste -- -- -- 26
2020-08-04 11:00:00 21.8 4 Nordeste 20 Nordeste -- -- -- 34
2020-08-04 10:00:00 22.5 8 Nordeste 28 Este -- -- -- 17
2020-08-04 09:00:00 20.6 12 Nordeste 27 Nordeste -- -- -- 21
2020-08-04 08:00:00 19.4 10 Nordeste 31 Norte -- -- -- 24
2020-08-04 07:00:00 18.5 14 Nordeste 30 Norte -- -- -- 26
2020-08-04 06:00:00 18.8 14 Nordeste 27 Nordeste -- -- -- 23
2020-08-04 05:00:00 20.6 14 Nordeste 29 Nordeste -- -- -- 9
2020-08-04 04:00:00 20.3 14 Nordeste 31 Norte -- -- -- 11
2020-08-04 03:00:00 20.5 15 Nordeste 28 Norte -- -- -- 8
2020-08-04 02:00:00 21 20 Norte 32 Nordeste -- -- -- 10
2020-08-04 01:00:00 20 17 Norte 33 Nordeste -- -- -- 24
2020-08-04 00:00:00 19.6 13 Nordeste 33 Norte -- -- -- 27
2020-08-03 23:00:00 19.4 9 Nordeste 30 Nordeste -- -- -- 25
2020-08-03 22:00:00 20.8 13 Nordeste 29 Nordeste -- -- -- 13
2020-08-03 21:00:00 21 14 Nordeste 27 Nordeste -- -- -- 14
2020-08-03 20:00:00 21.7 9 Nordeste 25 Norte -- -- -- 20
2020-08-03 19:00:00 22.7 7 Nordeste 27 Nordeste -- -- -- 20
2020-08-03 18:00:00 25.6 10 Nordeste 36 Este -- -- -- 20
2020-08-03 17:00:00 26.4 14 Este 43 Este -- -- -- 18
2020-08-03 16:00:00 26.7 20 Este 46 Este -- -- -- 15
2020-08-03 15:00:00 26.8 19 Este 47 Este -- -- -- 15
2020-08-03 14:00:00 26.7 18 Este 44 Este -- -- -- 11
2020-08-03 13:00:00 26.4 10 Nordeste 46 Nordeste -- -- -- 11
2020-08-03 12:00:00 25.7 10 Este 50 Nordeste -- -- -- 11
2020-08-03 11:00:00 25.1 13 Nordeste 49 Nordeste -- -- -- 8
2020-08-03 10:00:00 24 9 Nordeste 48 Nordeste -- -- -- 10
2020-08-03 09:00:00 22.5 14 Nordeste 49 Nordeste -- -- -- 11
2020-08-03 08:00:00 21.5 9 Nordeste 43 Nordeste -- -- -- 12
2020-08-03 07:00:00 21 12 Nordeste 47 Nordeste -- -- -- 11
2020-08-03 06:00:00 21.2 20 Nordeste 51 Nordeste -- -- -- 13
2020-08-03 05:00:00 20.5 22 Nordeste 45 Nordeste -- -- -- 16
2020-08-03 04:00:00 20.9 28 Nordeste 48 Norte -- -- -- 12
2020-08-03 03:00:00 21.6 30 Nordeste 48 Nordeste -- -- -- 12
2020-08-03 02:00:00 21.6 32 Nordeste 53 Nordeste -- -- -- 16
2020-08-03 01:00:00 21.6 10 Nordeste 47 Nordeste -- -- -- 24
2020-08-03 00:00:00 22.2 7 Nordeste 44 Norte -- -- -- 20
2020-08-02 23:00:00 22.3 18 Nordeste 46 Nordeste -- -- -- 15
2020-08-02 22:00:00 22 12 Nordeste 41 Nordeste -- -- -- 11
2020-08-02 21:00:00 21.2 6 Nordeste 40 Nordeste -- -- -- 12
2020-08-02 20:00:00 21.5 9 Nordeste 38 Nordeste -- -- -- 14
2020-08-02 19:00:00 22.6 9 Nordeste 41 Este -- -- -- 18
2020-08-02 18:00:00 23.9 14 Nordeste 37 Este -- -- -- 23
2020-08-02 17:00:00 24.5 5 Nordeste 27 Este -- -- -- 21
2020-08-02 16:00:00 25.3 7 Nordeste 24 Nordeste -- -- -- 25
2020-08-02 15:00:00 25.5 5 Nordeste 24 Norte -- -- -- 30
2020-08-02 14:00:00 25.5 5 Nordeste 17 Nordeste -- -- -- 35
2020-08-02 13:00:00 26 5 Nordeste 20 Nordeste -- -- -- 37
2020-08-02 12:00:00 25.6 4 Nordeste 22 Norte -- -- -- 34
2020-08-02 11:00:00 24.9 6 Nordeste 30 Nordeste -- -- -- 37
2020-08-02 10:00:00 23.2 5 Nordeste 31 Nordeste -- -- -- 42
2020-08-02 09:00:00 22.7 8 Nordeste 33 Nordeste -- -- -- 43
2020-08-02 08:00:00 22.3 13 Nordeste 33 Nordeste -- -- -- 42
2020-08-02 07:00:00 21.8 13 Nordeste 30 Norte -- -- -- 40
2020-08-02 06:00:00 21.4 10 Nordeste 33 Nordeste -- -- -- 34
2020-08-02 05:00:00 21 15 Nordeste 32 Nordeste -- -- -- 45
2020-08-02 04:00:00 21 12 Nordeste 33 Norte -- -- -- 42
2020-08-02 03:00:00 21.5 10 Nordeste 34 Nordeste -- -- -- 45
2020-08-02 02:00:00 21.7 16 Nordeste 37 Nordeste -- -- -- 40
2020-08-02 01:00:00 21.4 19 Nordeste 33 Nordeste -- -- -- 40
2020-08-02 00:00:00 21 22 Nordeste 39 Nordeste -- -- -- 40
2020-08-01 23:00:00 20.6 15 Nordeste 35 Norte -- -- -- 35
2020-08-01 22:00:00 21.7 9 Nordeste 22 Nordeste -- -- -- 16
2020-08-01 21:00:00 21.8 5 Nordeste 14 Nordeste -- -- -- 29
2020-08-01 20:00:00 24.6 3 Nordeste 18 Norte -- -- -- 32
2020-08-01 19:00:00 27.2 8 Oeste 20 Noroeste -- -- -- 24
2020-08-01 18:00:00 29.9 4 Sudeste 24 Oeste -- -- -- 25
2020-08-01 17:00:00 29 11 Sudoeste 32 Sudoeste -- -- -- 30
2020-08-01 16:00:00 28.7 12 Sur 26 Sudoeste -- -- -- 32
2020-08-01 15:00:00 27.9 9 Sudoeste 21 Sudoeste -- -- -- 33
2020-08-01 14:00:00 27.9 10 Sudoeste 19 Sudoeste -- -- -- 35
2020-08-01 13:00:00 27.2 9 Sudoeste 17 Sudoeste -- -- -- 35
2020-08-01 12:00:00 26.6 7 Sudoeste 14 Sudoeste -- -- -- 34
2020-08-01 11:00:00 26.2 8 Sudoeste 18 Sudoeste -- -- -- 33
2020-08-01 10:00:00 25 8 Sudoeste 14 Sudoeste -- -- -- 36
2020-08-01 09:00:00 24.7 2 Sudoeste 6 Oeste -- -- -- 38
2020-08-01 08:00:00 23.1 3 Oeste 6 Sudoeste -- -- -- 40
2020-08-01 07:00:00 22.4 0 Calma 10 Norte -- -- -- 32
2020-08-01 06:00:00 22.9 2 Nordeste 11 Norte -- -- -- 30
2020-08-01 05:00:00 23 5 Nordeste 13 Nordeste -- -- -- 30
2020-08-01 04:00:00 22.6 4 Nordeste 16 Norte -- -- -- 37
2020-08-01 03:00:00 22.4 8 Norte 14 Norte -- -- -- 45
2020-08-01 02:00:00 20.7 6 Nordeste 10 Nordeste -- -- -- 52
2020-08-01 01:00:00 21.6 0 Calma 6 Oeste -- -- -- 53
2020-08-01 00:00:00 22.1 5 Oeste 11 Sudoeste -- -- -- 53
2020-07-31 23:00:00 21.5 6 Sudoeste 12 Sudoeste -- -- -- 55
2020-07-31 22:00:00 21.1 8 Sudoeste 17 Sudoeste -- -- -- 50
2020-07-31 21:00:00 21.5 10 Sudoeste 25 Sudoeste -- -- -- 45
2020-07-31 20:00:00 22 17 Sudoeste 31 Sudoeste -- -- -- 45
2020-07-31 19:00:00 22.9 17 Sudoeste 28 Sudoeste -- -- -- 47
2020-07-31 18:00:00 23.7 15 Sudoeste 30 Sudoeste -- -- -- 48
2020-07-31 17:00:00 24 19 Sudoeste 31 Sudoeste -- -- -- 49
2020-07-31 16:00:00 24.5 23 Sudoeste 33 Sudoeste -- -- -- 44
2020-07-31 15:00:00 25.3 17 Sudoeste 26 Sudoeste -- -- -- 44
2020-07-31 14:00:00 25 11 Sudoeste 21 Sudoeste -- -- -- 42
2020-07-31 13:00:00 25.3 10 Sudoeste 18 Sudoeste -- -- -- 39
2020-07-31 12:00:00 26 9 Sudoeste 17 Sudoeste -- -- -- 29
2020-07-31 11:00:00 25.6 8 Sudoeste 15 Sudoeste -- -- -- 24
2020-07-31 10:00:00 25.4 2 Sudeste 9 Sudoeste -- -- -- 24
2020-07-31 09:00:00 24 6 Sudoeste 12 Oeste -- -- -- 26
2020-07-31 08:00:00 22.9 9 Sudoeste 16 Norte -- -- -- 22
2020-07-31 07:00:00 22.1 8 Nordeste 21 Nordeste -- -- -- 17
2020-07-31 06:00:00 21.5 5 Nordeste 17 Norte -- -- -- 15
2020-07-31 05:00:00 24 13 Norte 21 Norte -- -- -- 18
2020-07-31 04:00:00 24 12 Nordeste 18 Norte -- -- -- 18
2020-07-31 03:00:00 24.2 10 Nordeste 16 Norte -- -- -- 20
2020-07-31 02:00:00 23.9 8 Nordeste 17 Norte -- -- -- 20
2020-07-31 01:00:00 24.1 3 Nordeste 7 Nordeste -- -- -- 22
2020-07-31 00:00:00 24 0 Calma 9 Nordeste -- -- -- 24
2020-07-30 23:00:00 22.9 8 Nordeste 11 Nordeste -- -- -- 22
2020-07-30 22:00:00 22.9 2 Norte 5 Nordeste -- -- -- 26
2020-07-30 21:00:00 24.4 3 Oeste 5 Oeste -- -- -- 24
2020-07-30 20:00:00 24 0 Calma 5 Nordeste -- -- -- 33
2020-07-30 19:00:00 26.5 3 Nordeste 12 Oeste -- -- -- 32
2020-07-30 18:00:00 27.4 6 Sudoeste 15 Oeste -- -- -- 33
2020-07-30 17:00:00 26.8 8 Sudoeste 19 Sudoeste -- -- -- 30
2020-07-30 16:00:00 28.1 9 Sudoeste 18 Sudoeste -- -- -- 31
2020-07-30 15:00:00 29.1 9 Sudoeste 18 Sudoeste -- -- -- 27
2020-07-30 14:00:00 27.7 9 Oeste 16 Sudoeste -- -- -- 22
2020-07-30 13:00:00 28 6 Sudoeste 14 Sudoeste -- -- -- 18
2020-07-30 12:00:00 26.1 7 Sudoeste 15 Sudoeste -- -- -- 16
2020-07-30 11:00:00 25.8 5 Nordeste 13 Sudeste -- -- -- 17
2020-07-30 10:00:00 23.4 3 Nordeste 10 Este -- -- -- 12
2020-07-30 09:00:00 23.7 2 Sur 9 Este -- -- -- 12
2020-07-30 08:00:00 24.5 5 Oeste 10 Oeste -- -- -- 9
2020-07-30 07:00:00 23.3 3 Oeste 10 Oeste -- -- -- 7
2020-07-30 06:00:00 22.3 4 Oeste 9 Norte -- -- -- 6
2020-07-30 05:00:00 21.3 4 Norte 8 Nordeste -- -- -- 9
2020-07-30 04:00:00 20 2 Nordeste 8 Sudoeste -- -- -- 8
2020-07-30 03:00:00 22 5 Oeste 9 Norte -- -- -- 6
2020-07-30 02:00:00 22.3 5 Norte 14 Nordeste -- -- -- 12
2020-07-30 01:00:00 22.6 11 Nordeste 17 Norte -- -- -- 3
2020-07-30 00:00:00 22.6 14 Nordeste 19 Nordeste -- -- -- 4
2020-07-29 23:00:00 21.9 14 Nordeste 20 Nordeste -- -- -- 5
2020-07-29 22:00:00 22.3 10 Nordeste 17 Nordeste -- -- -- 5
2020-07-29 21:00:00 21.1 3 Nordeste 9 Nordeste -- -- -- 20
2020-07-29 20:00:00 23.9 4 Nordeste 10 Norte -- -- -- 18
2020-07-29 19:00:00 25.7 3 Nordeste 8 Este -- -- -- 15
2020-07-29 18:00:00 25.1 3 Nordeste 12 Nordeste -- -- -- 35
2020-07-29 17:00:00 24.2 4 Nordeste 11 Este -- -- -- 24
2020-07-29 16:00:00 25.1 3 Este 14 Nordeste -- -- -- 41
2020-07-29 15:00:00 25 5 Nordeste 14 Este -- -- -- 24
2020-07-29 14:00:00 23.1 5 Nordeste 14 Nordeste -- -- -- 36
2020-07-29 13:00:00 23.9 5 Este 14 Este -- -- -- 43
2020-07-29 12:00:00 23.4 3 Nordeste 20 Nordeste -- -- -- 44
2020-07-29 11:00:00 24.9 9 Nordeste 26 Norte -- -- -- 18
2020-07-29 10:00:00 24 4 Nordeste 21 Nordeste -- -- -- 20
2020-07-29 09:00:00 21.9 5 Nordeste 23 Norte -- -- -- 17
2020-07-29 08:00:00 21.5 10 Nordeste 26 Norte -- -- -- 17
2020-07-29 07:00:00 20.8 12 Nordeste 30 Norte -- -- -- 17
2020-07-29 06:00:00 21 14 Nordeste 29 Norte -- -- -- 21
2020-07-29 05:00:00 20.7 12 Nordeste 27 Norte -- -- -- 14
2020-07-29 04:00:00 21.4 10 Nordeste 26 Norte -- -- -- 9
2020-07-29 03:00:00 22.5 11 Nordeste 22 Norte -- -- -- 7
2020-07-29 02:00:00 22.3 11 Nordeste 20 Nordeste -- -- -- 9
2020-07-29 01:00:00 22.1 8 Nordeste 21 Nordeste -- -- -- 9
2020-07-29 00:00:00 22.1 12 Nordeste 27 Nordeste -- -- -- 9
2020-07-28 23:00:00 22 12 Nordeste 26 Norte -- -- -- 9
2020-07-28 22:00:00 21.4 8 Nordeste 21 Nordeste -- -- -- 12
2020-07-28 21:00:00 22.6 8 Nordeste 18 Norte -- -- -- 15
2020-07-28 20:00:00 22.9 5 Nordeste 15 Norte -- -- -- 22
2020-07-28 19:00:00 24.3 4 Nordeste 13 Nordeste -- -- -- 27
2020-07-28 18:00:00 25 5 Nordeste 13 Nordeste -- -- -- 29
2020-07-28 17:00:00 27.6 3 Nordeste 9 Nordeste -- -- -- 26
2020-07-28 16:00:00 27.9 4 Este 12 Este -- -- -- 30
2020-07-28 15:00:00 27.5 4 Nordeste 14 Este -- -- -- 26
2020-07-28 14:00:00 25.6 5 Nordeste 14 Nordeste -- -- -- 25
2020-07-28 13:00:00 26.2 4 Nordeste 14 Este -- -- -- 30
2020-07-28 12:00:00 26.8 4 Nordeste 16 Nordeste -- -- -- 16
2020-07-28 11:00:00 25.2 4 Nordeste 15 Norte -- -- -- 20
2020-07-28 10:00:00 24.9 3 Nordeste 13 Nordeste -- -- -- 14
2020-07-28 09:00:00 24.5 4 Nordeste 17 Nordeste -- -- -- 8
2020-07-28 08:00:00 23.1 10 Nordeste 21 Nordeste -- -- -- 11
2020-07-28 07:00:00 21.4 16 Nordeste 22 Nordeste -- -- -- 16
2020-07-28 06:00:00 21.3 3 Nordeste 12 Nordeste -- -- -- 9
2020-07-28 05:00:00 21.3 3 Nordeste 8 Norte -- -- -- 9
2020-07-28 04:00:00 22.6 3 Nordeste 7 Nordeste -- -- -- 9
2020-07-28 03:00:00 23.4 4 Nordeste 9 Nordeste -- -- -- 11
2020-07-28 02:00:00 20.9 2 Nordeste 7 Nordeste -- -- -- 15
2020-07-28 01:00:00 25.4 2 Sudoeste 4 Oeste -- -- -- 15
2020-07-28 00:00:00 25.9 0 Calma 6 Oeste -- -- -- 15
2020-07-27 23:00:00 25.8 2 Noroeste 5 Oeste -- -- -- 16
2020-07-27 22:00:00 27.8 4 Oeste 7 Oeste -- -- -- 14
2020-07-27 21:00:00 28.2 4 Oeste 10 Sudoeste -- -- -- 21
2020-07-27 20:00:00 30.4 6 Sudoeste 14 Sudoeste -- -- -- 21
2020-07-27 19:00:00 31.2 8 Oeste 15 Sudoeste -- -- -- 25
2020-07-27 18:00:00 31.7 10 Sudoeste 19 Sudoeste -- -- -- 26
2020-07-27 17:00:00 31.4 10 Oeste 18 Sudoeste -- -- -- 24
2020-07-27 16:00:00 30.4 9 Sudoeste 18 Sudoeste -- -- -- 24
2020-07-27 15:00:00 30 4 Sudeste 13 Nordeste -- -- -- 22
2020-07-27 14:00:00 27.1 4 Nordeste 16 Nordeste -- -- -- 25
2020-07-27 13:00:00 25.5 4 Nordeste 17 Nordeste -- -- -- 19
2020-07-27 12:00:00 23.4 4 Nordeste 17 Nordeste -- -- -- 19
2020-07-27 11:00:00 23.2 4 Nordeste 18 Nordeste -- -- -- 19
2020-07-27 08:00:00 -- -- -- -- -- -- -- -- --
2020-07-27 07:00:00 -- -- -- -- -- -- -- -- --
2020-07-27 06:00:00 -- -- -- -- -- -- -- -- --
2020-07-27 05:00:00 -- -- -- -- -- -- -- -- --
2020-07-27 04:00:00 19.2 17 Nordeste 27 Norte -- -- -- 11
2020-07-27 03:00:00 18.7 16 Nordeste 25 Nordeste -- -- -- 19
2020-07-27 02:00:00 18.7 3 Nordeste 24 Norte -- -- -- 24
2020-07-27 01:00:00 19.7 19 Nordeste 32 Nordeste -- -- -- 18
2020-07-27 00:00:00 20.1 22 Nordeste 34 Nordeste -- -- -- 16
2020-07-26 23:00:00 20.5 19 Nordeste 32 Nordeste -- -- -- 14
2020-07-26 22:00:00 20.2 15 Nordeste 29 Nordeste -- -- -- 17
2020-07-26 21:00:00 20.5 15 Nordeste 36 Nordeste -- -- -- 17
2020-07-26 20:00:00 21.1 21 Nordeste 36 Nordeste -- -- -- 17
2020-07-26 19:00:00 21.5 9 Nordeste 28 Nordeste -- -- -- 21
2020-07-26 18:00:00 21.4 5 Nordeste 27 Este -- -- -- 33
2020-07-26 17:00:00 21.7 7 Nordeste 24 Este -- -- -- 37
2020-07-26 16:00:00 21.8 8 Nordeste 32 Este -- -- -- 38
2020-07-26 15:00:00 22.2 13 Este 39 Este -- -- -- 39
2020-07-26 14:00:00 22.3 10 Nordeste 40 Este -- -- -- 33
2020-07-26 13:00:00 22.4 11 Nordeste 44 Este -- -- -- 32
2020-07-26 12:00:00 21.9 18 Este 45 Nordeste -- -- -- 31
2020-07-26 11:00:00 20.7 14 Nordeste 46 Este -- -- -- 35
2020-07-26 10:00:00 19.8 18 Nordeste 43 Norte -- -- -- 41
2020-07-26 09:00:00 18.5 20 Nordeste 42 Nordeste -- -- -- 42
2020-07-26 08:00:00 17.2 17 Nordeste 45 Norte -- -- -- 43
2020-07-26 07:00:00 17.1 21 Nordeste 46 Nordeste -- -- -- 41
2020-07-26 06:00:00 16.6 22 Nordeste 37 Nordeste -- -- -- 43
2020-07-26 05:00:00 16.6 21 Nordeste 42 Nordeste -- -- -- 33
2020-07-26 04:00:00 16.9 19 Nordeste 44 Norte -- -- -- 26
2020-07-26 03:00:00 17.5 29 Nordeste 42 Nordeste -- -- -- 24
2020-07-26 02:00:00 17.5 14 Nordeste 43 Nordeste -- -- -- 22
2020-07-26 01:00:00 17.5 7 Nordeste 32 Norte -- -- -- 23
2020-07-26 00:00:00 17.2 8 Nordeste 41 Nordeste -- -- -- 24
2020-07-25 23:00:00 17.8 18 Nordeste 41 Nordeste -- -- -- 23
2020-07-25 22:00:00 18.3 26 Nordeste 47 Norte -- -- -- 18
2020-07-25 21:00:00 19 22 Nordeste 47 Nordeste -- -- -- 15
2020-07-25 20:00:00 19.1 30 Nordeste 44 Norte -- -- -- 19
2020-07-25 19:00:00 20.4 30 Nordeste 44 Nordeste -- -- -- 19
2020-07-25 18:00:00 21.9 13 Nordeste 37 Este -- -- -- 19
2020-07-25 17:00:00 22.8 12 Nordeste 33 Este -- -- -- 23
2020-07-25 16:00:00 23.2 11 Nordeste 32 Nordeste -- -- -- 26
2020-07-25 15:00:00 23 7 Nordeste 29 Nordeste -- -- -- 25
2020-07-25 14:00:00 23.4 10 Nordeste 36 Este -- -- -- 21
2020-07-25 13:00:00 23.5 8 Nordeste 36 Este -- -- -- 21
2020-07-25 12:00:00 22.6 11 Nordeste 44 Este -- -- -- 22
2020-07-25 11:00:00 22.3 8 Nordeste 40 Este -- -- -- 17
2020-07-25 10:00:00 21.5 10 Nordeste 38 Este -- -- -- 20
2020-07-25 09:00:00 20.3 28 Nordeste 51 Norte -- -- -- 17
2020-07-25 08:00:00 19.8 25 Nordeste 43 Nordeste -- -- -- 15
2020-07-25 07:00:00 19.4 16 Nordeste 42 Nordeste -- -- -- 14
2020-07-25 06:00:00 19.8 19 Nordeste 44 Nordeste -- -- -- 12
2020-07-25 05:00:00 20.2 22 Nordeste 52 Nordeste -- -- -- 12
2020-07-25 04:00:00 20.5 22 Nordeste 47 Norte -- -- -- 12
2020-07-25 03:00:00 20.6 20 Nordeste 49 Nordeste -- -- -- 13
2020-07-25 02:00:00 20.5 27 Nordeste 49 Nordeste -- -- -- 15
2020-07-25 01:00:00 21 27 Nordeste 69 Norte -- -- -- 15
2020-07-25 00:00:00 20.9 32 Nordeste 48 Nordeste -- -- -- 15
2020-07-24 23:00:00 20.5 25 Nordeste 42 Nordeste -- -- -- 14
2020-07-24 22:00:00 20.4 20 Nordeste 40 Norte -- -- -- 16
2020-07-24 21:00:00 21.3 27 Nordeste 39 Nordeste -- -- -- 15
2020-07-24 20:00:00 21.5 7 Nordeste 33 Nordeste -- -- -- 18
2020-07-24 19:00:00 23.4 3 Nordeste 20 Norte -- -- -- 20
2020-07-24 18:00:00 24.8 5 Nordeste 21 Nordeste -- -- -- 19
2020-07-24 17:00:00 25 7 Nordeste 23 Este -- -- -- 18
2020-07-24 16:00:00 25.2 5 Nordeste 20 Este -- -- -- 17
2020-07-24 15:00:00 25.2 5 Nordeste 18 Nordeste -- -- -- 17
2020-07-24 14:00:00 25.5 5 Nordeste 23 Este -- -- -- 17
2020-07-24 13:00:00 25.8 5 Nordeste 16 Este -- -- -- 18
2020-07-24 12:00:00 25.6 5 Nordeste 24 Este -- -- -- 16
2020-07-24 11:00:00 25.3 5 Nordeste 22 Este -- -- -- 16
2020-07-24 10:00:00 24 3 Nordeste 15 Nordeste -- -- -- 15
2020-07-24 09:00:00 23.3 4 Nordeste 22 Nordeste -- -- -- 15
2020-07-24 08:00:00 22.6 18 Norte 23 Nordeste -- -- -- 15
2020-07-24 07:00:00 21.7 7 Nordeste 21 Nordeste -- -- -- 18
2020-07-24 06:00:00 22.1 12 Nordeste 22 Nordeste -- -- -- 16
2020-07-24 05:00:00 20.9 6 Nordeste 20 Nordeste -- -- -- 24
2020-07-24 04:00:00 20.8 4 Nordeste 12 Nordeste -- -- -- 24
2020-07-24 03:00:00 20.1 5 Nordeste 12 Nordeste -- -- -- 28
2020-07-24 02:00:00 20.3 4 Nordeste 17 Nordeste -- -- -- 27
2020-07-24 01:00:00 20.3 5 Nordeste 19 Nordeste -- -- -- 26
2020-07-24 00:00:00 20.4 15 Nordeste 22 Nordeste -- -- -- 27
2020-07-23 23:00:00 20.9 13 Nordeste 21 Nordeste -- -- -- 25
2020-07-23 22:00:00 20.1 6 Nordeste 17 Nordeste -- -- -- 28
2020-07-23 21:00:00 19.9 4 Nordeste 22 Nordeste -- -- -- 30
2020-07-23 20:00:00 21.2 3 Nordeste 12 Nordeste -- -- -- 30
2020-07-23 19:00:00 22.9 2 Nordeste 10 Nordeste -- -- -- 27
2020-07-23 18:00:00 23.8 4 Nordeste 15 Nordeste -- -- -- 27
2020-07-23 17:00:00 24 4 Nordeste 20 Nordeste -- -- -- 28
2020-07-23 16:00:00 24.8 4 Nordeste 17 Este -- -- -- 28
2020-07-23 15:00:00 25 4 Nordeste 17 Este -- -- -- 27
2020-07-23 14:00:00 24.9 4 Nordeste 18 Este -- -- -- 28
2020-07-23 13:00:00 25.1 5 Nordeste 22 Nordeste -- -- -- 28
2020-07-23 12:00:00 24.3 4 Nordeste 19 Nordeste -- -- -- 28
2020-07-23 11:00:00 23.7 4 Nordeste 16 Nordeste -- -- -- 24
2020-07-23 10:00:00 22.3 4 Nordeste 20 Nordeste -- -- -- 26
2020-07-23 09:00:00 20.5 3 Nordeste 18 Nordeste -- -- -- 31
2020-07-23 08:00:00 19.1 6 Nordeste 13 Nordeste -- -- -- 32
2020-07-23 07:00:00 20.1 5 Nordeste 11 Nordeste -- -- -- 28
2020-07-23 06:00:00 21.2 4 Nordeste 13 Nordeste -- -- -- 10
2020-07-23 05:00:00 22 5 Nordeste 12 Nordeste -- -- -- 10
2020-07-23 04:00:00 21.5 6 Nordeste 14 Nordeste -- -- -- 10
2020-07-23 03:00:00 22.2 2 Nordeste 16 Nordeste -- -- -- 9
2020-07-23 02:00:00 24.5 13 Nordeste 18 Nordeste -- -- -- 9
2020-07-23 01:00:00 22.9 12 Nordeste 19 Norte -- -- -- 10
2020-07-23 00:00:00 20.9 6 Nordeste 19 Norte -- -- -- 13
2020-07-22 23:00:00 22.2 6 Nordeste 18 Nordeste -- -- -- 17
2020-07-22 22:00:00 25.2 14 Norte 20 Norte -- -- -- 9
2020-07-22 21:00:00 25.6 10 Norte 17 Norte -- -- -- 11
2020-07-22 20:00:00 26.3 3 Nordeste 15 Norte -- -- -- 26
2020-07-22 19:00:00 28.6 5 Nordeste 14 Norte -- -- -- 14
2020-07-22 18:00:00 30.3 3 Este 8 Sudeste -- -- -- 23
2020-07-22 17:00:00 30 3 Nordeste 13 Oeste -- -- -- 24
2020-07-22 16:00:00 29.4 3 Nordeste 12 Sudeste -- -- -- 28
2020-07-22 15:00:00 30.5 5 Este 13 Oeste -- -- -- 23
2020-07-22 14:00:00 29 4 Este 12 Este -- -- -- 19
2020-07-22 13:00:00 28.4 4 Este 11 Nordeste -- -- -- 23
2020-07-22 12:00:00 28.9 3 Este 11 Este -- -- -- 19
2020-07-22 11:00:00 26.3 3 Nordeste 10 Nordeste -- -- -- 20
2020-07-22 10:00:00 26.1 3 Nordeste 12 Nordeste -- -- -- 18
2020-07-22 09:00:00 24.3 2 Este -- -- -- -- -- 18
2020-07-22 08:00:00 22.4 2 Nordeste 9 Nordeste -- -- -- 19
2020-07-22 07:00:00 21.8 4 Nordeste 12 Nordeste -- -- -- 18
2020-07-22 06:00:00 22 3 Nordeste 17 Nordeste -- -- -- 18
2020-07-22 05:00:00 22.8 6 Nordeste 19 Norte -- -- -- 15
2020-07-22 04:00:00 23.6 12 Norte 19 Nordeste -- -- -- 14
2020-07-22 03:00:00 23.2 6 Nordeste 20 Norte -- -- -- 14
2020-07-22 02:00:00 23.2 5 Nordeste 17 Norte -- -- -- 12
2020-07-22 01:00:00 23.4 10 Nordeste 17 Nordeste -- -- -- 11
2020-07-22 00:00:00 23.1 12 Nordeste 18 Norte -- -- -- 8
2020-07-21 23:00:00 23.7 12 Nordeste 17 Norte -- -- -- 14
2020-07-21 22:00:00 24.2 11 Norte 17 Norte -- -- -- 12
2020-07-21 21:00:00 22.9 5 Nordeste 11 Nordeste -- -- -- 18
2020-07-21 20:00:00 25.5 7 Nordeste 14 Norte -- -- -- 9
2020-07-21 19:00:00 24.6 7 Nordeste 12 Nordeste -- -- -- 29
2020-07-21 18:00:00 26.1 4 Nordeste 11 Nordeste -- -- -- 29
2020-07-21 17:00:00 26 4 Nordeste 14 Este -- -- -- 31
2020-07-21 16:00:00 25.3 5 Nordeste 16 Este -- -- -- 27
2020-07-21 15:00:00 25.3 6 Nordeste 21 Nordeste -- -- -- 34
2020-07-21 14:00:00 26.1 5 Nordeste 20 Este -- -- -- 26
2020-07-21 13:00:00 25.9 8 Este 19 Este -- -- -- 19
2020-07-21 12:00:00 24.7 5 Nordeste 19 Sudeste -- -- -- 16
2020-07-21 11:00:00 23.7 4 Nordeste 22 Este -- -- -- 11
2020-07-21 10:00:00 24 5 Nordeste 33 Norte -- -- -- 9
2020-07-21 09:00:00 22.9 10 Nordeste 32 Nordeste -- -- -- 9
2020-07-21 08:00:00 21.3 12 Nordeste 30 Nordeste -- -- -- 10
2020-07-21 07:00:00 19.2 14 Nordeste 29 Norte -- -- -- 18
2020-07-21 06:00:00 19.1 12 Nordeste 28 Nordeste -- -- -- 20
2020-07-21 05:00:00 18.6 17 Norte 26 Nordeste -- -- -- 22
2020-07-21 04:00:00 17.9 6 Nordeste 33 Norte -- -- -- 25
2020-07-21 03:00:00 19.3 19 Nordeste 37 Norte -- -- -- 22
2020-07-21 02:00:00 19.2 19 Nordeste 34 Nordeste -- -- -- 22
2020-07-21 01:00:00 19.5 15 Nordeste 29 Noroeste -- -- -- 21
2020-07-21 00:00:00 20.5 19 Norte 33 Norte -- -- -- 20
2020-07-20 23:00:00 20.2 8 Nordeste 25 Norte -- -- -- 19
2020-07-20 22:00:00 21.1 13 Norte 23 Norte -- -- -- 19
2020-07-20 21:00:00 22.4 7 Nordeste 18 Norte -- -- -- 17
2020-07-20 20:00:00 25.1 9 Norte 16 Noroeste -- -- -- 11
2020-07-20 19:00:00 26.8 6 Nordeste 15 Este -- -- -- 24
2020-07-20 18:00:00 28.7 3 Este 28 Norte -- -- -- 18
2020-07-20 17:00:00 28.5 8 Este 19 Este -- -- -- 17
2020-07-20 16:00:00 28.2 6 Este 19 Nordeste -- -- -- 25
2020-07-20 15:00:00 26.1 9 Este 24 Este -- -- -- 32
2020-07-20 14:00:00 27.1 8 Este 23 Norte -- -- -- 30
2020-07-20 13:00:00 27 12 Este 30 Este -- -- -- 28
2020-07-20 12:00:00 26 8 Nordeste 33 Este -- -- -- 33
2020-07-20 11:00:00 25.5 11 Nordeste 35 Nordeste -- -- -- 34
2020-07-20 10:00:00 24.5 11 Nordeste 35 Nordeste -- -- -- 35
2020-07-20 09:00:00 22.7 12 Nordeste 38 Norte -- -- -- 37
2020-07-20 08:00:00 22.1 10 Nordeste 35 Nordeste -- -- -- 33
2020-07-20 07:00:00 22.1 12 Nordeste 40 Nordeste -- -- -- 27
2020-07-20 06:00:00 22.1 24 Nordeste 40 Norte -- -- -- 28
2020-07-20 05:00:00 22.3 20 Nordeste 41 Nordeste -- -- -- 26
2020-07-20 04:00:00 22.8 26 Nordeste 47 Norte -- -- -- 26
2020-07-20 03:00:00 22.9 20 Nordeste 46 Nordeste -- -- -- 27
2020-07-20 02:00:00 22.7 25 Nordeste 50 Norte -- -- -- 30
2020-07-20 01:00:00 22.3 20 Nordeste 48 Norte -- -- -- 32
2020-07-20 00:00:00 22 19 Nordeste 47 Norte -- -- -- 32
2020-07-19 23:00:00 22.1 23 Nordeste 48 Norte -- -- -- 30
2020-07-19 22:00:00 21.9 30 Nordeste 42 Norte -- -- -- 29
2020-07-19 21:00:00 22 22 Nordeste 40 Norte -- -- -- 26
2020-07-19 20:00:00 23.4 23 Nordeste 39 Norte -- -- -- 24
2020-07-19 19:00:00 24.6 12 Nordeste 30 Nordeste -- -- -- 25
2020-07-19 18:00:00 25.3 9 Nordeste 36 Nordeste -- -- -- 22
2020-07-19 17:00:00 25.9 8 Nordeste 26 Este -- -- -- 22
2020-07-19 16:00:00 26 8 Nordeste 30 Nordeste -- -- -- 20
2020-07-19 15:00:00 27.9 7 Nordeste 38 Nordeste -- -- -- 21
2020-07-19 14:00:00 27.1 8 Nordeste 39 Este -- -- -- 22
2020-07-19 13:00:00 27.1 12 Nordeste 49 Nordeste -- -- -- 22
2020-07-19 12:00:00 26.4 13 Nordeste 44 Nordeste -- -- -- 19
2020-07-19 11:00:00 25.3 15 Este 42 Este -- -- -- 20
2020-07-19 10:00:00 23.6 7 Nordeste 34 Nordeste -- -- -- 23
2020-07-19 09:00:00 23.2 17 Nordeste 42 Nordeste -- -- -- 20
2020-07-19 08:00:00 23.6 7 Nordeste 35 Nordeste -- -- -- 18
2020-07-19 07:00:00 22.7 13 Nordeste 34 Nordeste -- -- -- 17
2020-07-19 06:00:00 22.6 12 Nordeste 32 Nordeste -- -- -- 17
2020-07-19 05:00:00 23.1 14 Nordeste 41 Nordeste -- -- -- 19
2020-07-19 04:00:00 22.6 16 Nordeste 39 Norte -- -- -- 20
2020-07-19 03:00:00 22.3 17 Nordeste 41 Nordeste -- -- -- 23
2020-07-19 02:00:00 22.5 17 Nordeste 41 Nordeste -- -- -- 24
2020-07-19 01:00:00 22.8 10 Nordeste 37 Nordeste -- -- -- 20
2020-07-19 00:00:00 22.7 10 Nordeste 40 Norte -- -- -- 17
2020-07-18 23:00:00 23.2 20 Nordeste 41 Nordeste -- -- -- 16
2020-07-18 22:00:00 23.6 23 Nordeste 42 Nordeste -- -- -- 16
2020-07-18 21:00:00 23.9 25 Nordeste 40 Nordeste -- -- -- 18
2020-07-18 20:00:00 24.8 11 Nordeste 31 Este -- -- -- 19
2020-07-18 19:00:00 26.4 10 Este 24 Este -- -- -- 17
2020-07-18 18:00:00 27.5 6 Nordeste 23 Este -- -- -- 18
2020-07-18 17:00:00 28 6 Nordeste 24 Nordeste -- -- -- 17
2020-07-18 16:00:00 28.4 4 Nordeste 26 Este -- -- -- 16
2020-07-18 15:00:00 28.5 10 Nordeste 24 Nordeste -- -- -- 16
2020-07-18 14:00:00 29.3 10 Este 28 Este -- -- -- 20
2020-07-18 13:00:00 30 14 Este 29 Este -- -- -- 16
2020-07-18 12:00:00 27.9 4 Nordeste 18 Este -- -- -- 17
2020-07-18 11:00:00 27.3 4 Nordeste 16 Nordeste -- -- -- 15
2020-07-18 10:00:00 27 4 Nordeste 14 Nordeste -- -- -- 14
2020-07-18 09:00:00 25.5 5 Nordeste 26 Norte -- -- -- 14
2020-07-18 08:00:00 24.5 12 Nordeste 23 Nordeste -- -- -- 13
2020-07-18 07:00:00 23.7 13 Nordeste 23 Nordeste -- -- -- 12
2020-07-18 06:00:00 24 10 Nordeste 20 Norte -- -- -- 11
2020-07-18 05:00:00 24.2 9 Nordeste 20 Nordeste -- -- -- 12
2020-07-18 04:00:00 24.2 7 Nordeste 22 Nordeste -- -- -- 13
2020-07-18 03:00:00 24 4 Nordeste 21 Nordeste -- -- -- 12
2020-07-18 02:00:00 25.5 13 Nordeste 21 Nordeste -- -- -- 16
2020-07-18 01:00:00 26.1 14 Nordeste 22 Nordeste -- -- -- 15
2020-07-18 00:00:00 25.9 13 Nordeste 23 Norte -- -- -- 18
2020-07-17 23:00:00 24.1 2 Nordeste 8 Nordeste -- -- -- 13
2020-07-17 22:00:00 25 3 Nordeste 18 Nordeste -- -- -- 18
2020-07-17 21:00:00 26.8 7 Nordeste 11 Norte -- -- -- 14
2020-07-17 20:00:00 27.8 0 Calma 3 Nordeste -- -- -- 17
2020-07-17 19:00:00 28.4 0 Calma 10 Este -- -- -- 17
2020-07-17 18:00:00 31.3 3 Este 13 Este -- -- -- 20
2020-07-17 17:00:00 29.1 5 Nordeste 13 Este -- -- -- 21
2020-07-17 16:00:00 29.7 4 Sudeste 9 Sudeste -- -- -- 24
2020-07-17 15:00:00 27.3 4 Nordeste 10 Nordeste -- -- -- 26
2020-07-17 14:00:00 30 5 Sudoeste 14 Este -- -- -- 19
2020-07-17 13:00:00 30.9 4 Este 12 Nordeste -- -- -- 20
2020-07-17 12:00:00 26.9 3 Nordeste 11 Nordeste -- -- -- 17
2020-07-17 11:00:00 27.7 4 Nordeste 9 Nordeste -- -- -- 18
2020-07-17 10:00:00 27.9 3 Este 6 Este -- -- -- 18
2020-07-17 09:00:00 25.4 0 Calma 6 Norte -- -- -- 24
2020-07-17 08:00:00 23.9 3 Norte 5 Nordeste -- -- -- 24
2020-07-17 07:00:00 22.4 0 Calma 6 Oeste -- -- -- 19
2020-07-17 06:00:00 22.6 3 Norte 8 Norte -- -- -- 17
2020-07-17 05:00:00 23.4 4 Nordeste 8 Norte -- -- -- 19
2020-07-17 04:00:00 22.7 0 Calma 4 Nordeste -- -- -- 20
2020-07-17 03:00:00 24.4 0 Calma 9 Sudoeste -- -- -- 17
2020-07-17 02:00:00 24.8 4 Oeste 7 Oeste -- -- -- 16
2020-07-17 01:00:00 24.8 4 Sudeste 9 Este -- -- -- 20
2020-07-17 00:00:00 24.3 4 Este 8 Este -- -- -- 17
2020-07-16 23:00:00 24.7 3 Sudeste 5 Sur -- -- -- 16
2020-07-16 22:00:00 25.7 2 Sur 7 Sur -- -- -- 18
2020-07-16 21:00:00 24.5 0 Calma 5 Nordeste -- -- -- 38
2020-07-16 20:00:00 28.1 0 Calma 13 Sudoeste -- -- -- 32
2020-07-16 19:00:00 29.6 5 Sudoeste 13 Oeste -- -- -- 27
2020-07-16 18:00:00 29.9 3 Nordeste 14 Sur -- -- -- 35
2020-07-16 17:00:00 28.8 2 Nordeste 10 Este -- -- -- 38
2020-07-16 16:00:00 29.6 3 Este 16 Oeste -- -- -- 37
2020-07-16 15:00:00 28.7 7 Sudoeste 15 Sudoeste -- -- -- 27
2020-07-16 14:00:00 28.2 7 Sudoeste 14 Sudoeste -- -- -- 28
2020-07-16 13:00:00 28.3 6 Sudoeste 12 Noroeste -- -- -- 26
2020-07-16 12:00:00 26.3 4 Nordeste 13 Este -- -- -- 36
2020-07-16 11:00:00 27.1 3 Este 9 Este -- -- -- 32
2020-07-16 10:00:00 28.5 3 Este 9 Norte -- -- -- 16
2020-07-16 09:00:00 26.6 5 Nordeste 12 Nordeste -- -- -- 13
2020-07-16 08:00:00 24.3 8 Norte 14 Norte -- -- -- 13
2020-07-16 07:00:00 23.2 5 Nordeste 9 Nordeste -- -- -- 14
2020-07-16 06:00:00 19.3 4 Nordeste 9 Norte -- -- -- 41
2020-07-16 05:00:00 19.7 4 Nordeste 13 Norte -- -- -- 40
2020-07-16 04:00:00 19.5 9 Nordeste 15 Nordeste -- -- -- 41
2020-07-16 03:00:00 19.7 12 Nordeste 21 Norte -- -- -- 40
2020-07-16 02:00:00 19.5 14 Nordeste 17 Nordeste -- -- -- 39
2020-07-16 01:00:00 19 3 Nordeste 14 Norte -- -- -- 42
2020-07-16 00:00:00 19.3 5 Nordeste 15 Nordeste -- -- -- 42
2020-07-15 23:00:00 19.6 5 Nordeste 20 Norte -- -- -- 40
2020-07-15 22:00:00 19.8 12 Nordeste 24 Nordeste -- -- -- 41
2020-07-15 21:00:00 19.4 9 Nordeste 24 Nordeste -- -- -- 43
2020-07-15 20:00:00 20.1 5 Nordeste 30 Nordeste -- -- -- 42
2020-07-15 19:00:00 21.2 5 Nordeste 27 Nordeste -- -- -- 41
2020-07-15 18:00:00 22.1 8 Nordeste 30 Nordeste -- -- -- 40
2020-07-15 17:00:00 22.6 6 Nordeste 29 Nordeste -- -- -- 40
2020-07-15 16:00:00 22.7 5 Nordeste 41 Nordeste -- -- -- 40
2020-07-15 15:00:00 22.8 8 Nordeste 30 Norte -- -- -- 40
2020-07-15 14:00:00 22.7 5 Nordeste 27 Nordeste -- -- -- 40
2020-07-15 13:00:00 22.1 6 Nordeste 35 Nordeste -- -- -- 39
2020-07-15 12:00:00 22.1 7 Nordeste 36 Este -- -- -- 39
2020-07-15 11:00:00 21.2 12 Nordeste 33 Nordeste -- -- -- 43
2020-07-15 10:00:00 20.5 10 Nordeste 33 Este -- -- -- 44
2020-07-15 09:00:00 19.8 8 Nordeste 41 Nordeste -- -- -- 42
2020-07-15 08:00:00 18.2 27 Nordeste 48 Nordeste -- -- -- 43
2020-07-15 07:00:00 17.8 30 Nordeste 49 Norte -- -- -- 41
2020-07-15 06:00:00 17.9 33 Nordeste 49 Nordeste -- -- -- 40
2020-07-15 05:00:00 17.7 38 Nordeste 53 Nordeste -- -- -- 42
2020-07-15 04:00:00 16.9 30 Nordeste 56 Norte -- -- -- 47
2020-07-15 03:00:00 16.5 26 Nordeste 56 Nordeste -- -- -- 51
2020-07-15 02:00:00 16.9 35 Nordeste 54 Nordeste -- -- -- 50
2020-07-15 01:00:00 17.2 34 Nordeste 61 Norte -- -- -- 49
2020-07-15 00:00:00 17.1 39 Nordeste 63 Nordeste -- -- -- 48
2020-07-14 23:00:00 16.7 18 Nordeste 63 Este -- -- -- 44
2020-07-14 22:00:00 16.8 33 Este 67 Este -- -- -- 43
2020-07-14 21:00:00 16.5 26 Este 66 Este -- -- -- 53
2020-07-14 20:00:00 17.8 32 Este 72 Este -- -- -- 55
2020-07-14 19:00:00 18.5 33 Este 71 Este -- -- -- 52
2020-07-14 18:00:00 19.7 30 Este 68 Nordeste -- -- -- 45
2020-07-14 17:00:00 20.1 22 Este 68 Este -- -- -- 46
2020-07-14 16:00:00 20.7 21 Este 72 Este -- -- -- 45
2020-07-14 15:00:00 21.1 20 Nordeste 63 Este -- -- -- 41
2020-07-14 14:00:00 20.6 22 Este 62 Este -- -- -- 42
2020-07-14 13:00:00 20.9 15 Nordeste 62 Sudeste -- -- -- 40
2020-07-14 12:00:00 20.1 15 Nordeste 51 Nordeste -- -- -- 45
2020-07-14 11:00:00 19.2 14 Nordeste 44 Este -- -- -- 43
2020-07-14 10:00:00 19.4 8 Nordeste 41 Nordeste -- -- -- 35
2020-07-14 09:00:00 18.6 21 Nordeste 47 Norte -- -- -- 31
2020-07-14 08:00:00 18.3 19 Este 42 Nordeste -- -- -- 32
2020-07-14 07:00:00 18.2 15 Nordeste 45 Este -- -- -- 29
2020-07-14 06:00:00 18.7 14 Nordeste 45 Nordeste -- -- -- 23
2020-07-14 05:00:00 18.9 18 Nordeste 44 Nordeste -- -- -- 24
2020-07-14 04:00:00 18.4 11 Nordeste 40 Este -- -- -- 25
2020-07-14 03:00:00 18.2 18 Este 40 Este -- -- -- 25
2020-07-14 02:00:00 18.1 8 Nordeste 28 Este -- -- -- 20
2020-07-14 01:00:00 18.4 11 Nordeste 30 Este -- -- -- 19
2020-07-14 00:00:00 19.9 14 Este 38 Nordeste -- -- -- 11
2020-07-13 23:00:00 20.9 15 Este 34 Este -- -- -- 12
2020-07-13 22:00:00 21 17 Este 37 Este -- -- -- 10
2020-07-13 21:00:00 21.1 7 Nordeste 17 Este -- -- -- 8
2020-07-13 20:00:00 25.7 4 Nordeste 17 Norte -- -- -- 14
2020-07-13 19:00:00 28.5 5 Noroeste 18 Sudoeste -- -- -- 10
2020-07-13 18:00:00 29.5 5 Sudeste 23 Sudoeste -- -- -- 25
2020-07-13 17:00:00 29.6 9 Sudoeste 24 Oeste -- -- -- 21
2020-07-13 16:00:00 30.2 7 Sudoeste 19 Sudoeste -- -- -- 21
2020-07-13 15:00:00 29.3 6 Sur 12 Sur -- -- -- 23
2020-07-13 14:00:00 30 3 Este 18 Sudoeste -- -- -- 19
2020-07-13 13:00:00 29.2 8 Sudoeste 17 Sudoeste -- -- -- 15
2020-07-13 12:00:00 28.2 9 Sudoeste 16 Sudoeste -- -- -- 13
2020-07-13 11:00:00 27.4 8 Sudoeste 15 Sudoeste -- -- -- 13
2020-07-13 10:00:00 26.9 8 Sudoeste 14 Sudoeste -- -- -- 15
2020-07-13 09:00:00 25.6 4 Sudoeste 10 Sudoeste -- -- -- 16
2020-07-13 08:00:00 23.4 3 Oeste 6 Oeste -- -- -- 20
2020-07-13 07:00:00 23.1 4 Oeste 7 Oeste -- -- -- 20
2020-07-13 06:00:00 24.4 5 Oeste 7 Oeste -- -- -- 19
2020-07-13 05:00:00 21.9 4 Oeste 6 Oeste -- -- -- 22
2020-07-13 04:00:00 24.3 4 Oeste 6 Oeste -- -- -- 17
2020-07-13 03:00:00 23.7 4 Oeste 6 Oeste -- -- -- 16
2020-07-13 02:00:00 22.6 3 Oeste 5 Oeste -- -- -- 19
2020-07-13 01:00:00 23.1 2 Oeste 5 Oeste -- -- -- 18
2020-07-13 00:00:00 23.3 2 Oeste 4 Oeste -- -- -- 18